Powrót do katalogu

STARLINK-36909

AktywnyŁącznośćVLEO
NORAD 67946·PAYLOAD·🇺🇸 United States

Wystrzelony Feb 24, 2026 z Vandenberg Space Force Base

Loading…

Następne Przeloty (najbliższe 24 godziny)

TLE

ŚwieżeSource: CelesTrak SupGP

Epoka: Sep 14, 2026, 21:27 UTC

1 67946C 26037Q   26257.89423611  .00014295  00000+0  51772-3 0  2578
2 67946  43.0015 201.8763 0001323 260.6834 349.8503 15.27573865    14

Śledź STARLINK-36909 w czasie rzeczywistym z AllMySat

Download on the App Store